Back to catalog

STARLINK-2741

AliveCommunicationsVLEO
NORAD 48684·PAYLOAD·🇺🇸 United States

Launched May 26, 2021 from Cape Canaveral Space Force Station

Loading…

Next Passes (next 24 hours)

TLE

FreshSource: CelesTrak SupGP

Epoch: Sep 14, 2026, 20:03 UTC

1 48684C 21044AY  26257.83590278  .00017297  00000+0  55618-3 0  2575
2 48684  53.1577 277.6741 0000803  77.4073 281.3518 15.31695978    16

Track STARLINK-2741 in real time with AllMySat

Download on the App Store